Location: Plymouth
(43.7570°N, 71.6890°W)
Time: 00:01:36
(UTC-04:00)

Daily predictions for brighter satellites

Satellite Brightness Start Highest point End
(mag) Time Altitude Azimuth Time Altitude Azimuth Time Altitude Azimuth
Cosmos 1943 Rocket 4.2 03:24:25 22° E 03:24:25 22° E 03:27:32 10° NE
CENTAUR R/B 4.2 03:36:53 27° N 03:36:53 27° N 03:41:00 10° NNE
ADEOS II 3.8 03:34:41 10° NE 03:38:26 28° ENE 03:38:26 28° ENE
Lacrosse 5 3.8 03:55:11 25° NNE 03:55:11 25° NNE 03:57:23 10° NE
Cosmos 2369 Rocket 3.1 04:01:40 44° NE 04:01:40 44° NE 04:05:27 10° NNE
CZ-3 R/B 4.5 03:53:06 44° SW 03:59:52 49° SSW 04:12:12 10° SE
Milstar 3 4.3 04:07:25 21° SSE 04:07:25 21° SSE 04:11:28 10° SE
CZ-4C R/B 3.2 04:06:25 36° NNW 04:09:31 65° NE 04:17:23 10° SE
Cosmos 2074 Rocket 3.9 04:13:28 10° N 04:19:47 83° E 04:26:05 10° S
Cosmos 44 4.4 04:22:50 37° ESE 04:22:50 37° ESE 04:25:55 10° SE
Cosmos 2298 Rocket 4.4 04:32:13 52° SSE 04:33:14 62° ESE 04:38:30 10° NNE
Cosmos 44 Rocket 3.5 04:38:36 65° SE 04:38:36 65° SE 04:42:49 10° SE
Okean O Rocket 2.2 04:39:55 10° NNE 04:44:15 55° E 04:45:47 36° SSE
Cosmos 2154 Rocket 4.2 04:42:32 10° N 04:48:56 75° E 04:55:13 10° SSE
Cosmos 1656 Rocket 4.2 04:47:31 18° S 04:51:36 57° ESE 04:57:10 10° NNE
Cosmos 489 Rocket 4.3 04:50:32 53° SW 04:52:01 73° WNW 04:58:17 10° NNE
USA 215 4.2 04:47:47 10° NE 04:53:28 33° NNW 04:55:23 28° NW
APEX 3.7 04:55:34 55° NE 04:55:56 58° ENE 05:00:11 10° SE
CZ-4B R/B 3.5 04:55:16 10° NNE 05:00:42 68° ESE 05:06:12 10° S
Cosmos 1758 Rocket 3.8 04:58:48 13° S 05:02:48 70° E 05:07:18 10° NNE
Cosmos 1943 Rocket 2.3 05:05:59 49° W 05:06:34 51° WNW 05:11:59 10° NNE
Cosmos-2242 4.0 05:03:37 10° N 05:07:47 48° ENE 05:11:56 10° SSE
Landsat 4 4.3 05:05:59 10° SSE 05:09:41 56° ENE 05:13:23 10° N
NOSS 3-1 (C) 4.1 05:05:48 10° SSW 05:11:17 52° ESE 05:17:25 10° NE
Cosmos 1610 Rocket 4.4 05:05:22 10° NNW 05:11:26 60° W 05:17:25 10° S
USA 229 DEB 3.6 05:08:09 30° SW 05:11:52 82° NW 05:18:52 10° NE
USA 229 3.6 05:08:12 29° SW 05:11:58 82° NW 05:18:57 10° NE
Meteor 2-19 Rocket 4.4 05:07:00 10° NNW 05:13:01 57° W 05:19:02 10° S
ADEOS II 2.6 05:14:14 10° N 05:19:03 37° WNW 05:19:22 37° WNW
COSMO-SKYMED 1 4.4 05:16:11 10° SE 05:20:04 33° ENE 05:23:58 10° N
RUBIN 8/PSLV 4.4 05:16:36 10° N 05:20:54 69° WNW 05:23:34 22° SSW
Meteor 1-28 Rocket 4.0 05:19:13 10° SSE 05:22:56 53° ENE 05:26:40 10° N
USA 267 4.3 05:21:06 10° S 05:26:05 23° SW 05:26:05 23° SW
Cosmos 962 Rocket 4.3 05:22:54 10° N 05:29:04 77° W 05:35:10 10° S
Meteor PRIRODA 3.5 05:25:26 10° N 05:29:12 76° WNW 05:32:56 10° SSW
OAO 2 Rocket 4.5 05:28:14 23° SW 05:30:03 30° S 05:34:20 10° SE
Lacrosse 5 3.5 05:34:23 18° NW 05:36:17 22° NNW 05:40:11 10° NE
Cosmos 1470 4.4 05:38:45 19° SW 05:38:45 19° SW 05:40:03 10° SSW
IRS-1C Rocket 4.0 05:31:38 10° N 05:36:53 68° WNW 05:42:06 10° SSW
Cosmos 2341 Rocket 4.0 05:31:12 10° NNW 05:37:33 68° W 05:43:52 10° S
Cosmos 468 4.5 05:32:44 10° NNW 05:38:04 89° WSW 05:43:23 10° SSE
Cosmos 2150 Rocket 4.4 05:38:19 24° WSW 05:40:57 40° WNW 05:45:58 10° N
Cosmos 2181 Rocket 3.9 05:36:40 10° S 05:42:55 80° W 05:49:09 10° N
Cosmos 2227 Rocket 3.7 05:38:40 10° N 05:43:56 37° NE 05:49:09 10° ESE
Cosmos 2369 Rocket 3.6 05:43:29 19° WNW 05:44:27 19° NW 05:48:30 10° N
Meteor 2-14 Rocket 4.4 05:39:02 10° N 05:45:08 88° E 05:51:12 10° S
CZ-4B R/B 4.4 05:42:47 10° NNW 05:44:13 17° NW 05:44:13 17° NW
Cosmos 1340 Rocket 3.8 05:47:17 26° W 05:47:35 26° WNW 05:51:03 10° NNW
Meteor 1-31 Rocket 2.8 05:45:08 10° N 05:48:51 51° WNW 05:52:32 10° SSW
Cosmos 1937 Rocket 4.3 05:47:18 22° WSW 05:49:42 31° WNW 05:54:25 10° N
Cosmos 372 Rocket 4.2 05:46:28 10° SSW 05:51:38 74° ESE 05:56:53 10° NNE
SJ-6F 4.3 05:47:38 10° N 05:51:42 64° WNW 05:55:42 10° SSW
Cosmos 1953 Rocket 4.1 05:49:53 10° SW 05:53:51 35° WNW 05:57:51 10° N
NOAA 6 4.3 05:49:17 10° NNE 05:54:28 74° ESE 05:59:37 10° S
Tiangong 2 2.2 05:55:26 23° WSW 05:56:41 32° SSW 05:59:35 10° SE
Cosmos 1125 Rocket 3.5 05:51:31 10° SSW 05:56:46 90° E 06:02:06 10° NNE
CZ-4C R/B 3.6 05:51:41 11° NW 05:57:55 34° WSW 06:04:51 10° S
SJ 16-02 1.4 05:55:09 10° SSW 05:59:33 82° ESE 06:03:58 10° NNE
Cosmos 1959 Rocket 4.5 05:56:19 10° N 06:02:40 82° W 06:08:54 10° S
Cosmos 1707 3.8 06:01:10 13° SW 06:03:57 25° WNW 06:07:16 10° NNW
Meteor 2-5 Rocket 3.9 06:01:05 10° SSW 06:06:52 54° WNW 06:12:35 10° N
SKYMED 2 3.5 06:03:39 10° S 06:07:59 77° WSW 06:12:21 10° NNW
Cosmos 2219 3.3 06:02:51 10° NNW 06:08:27 58° WSW 06:13:56 10° S
MINOTAUR R/B 4.2 06:12:55 10° NNW 06:15:35 83° ENE 06:18:13 10° SSE
Meteor 2-1 Rocket 4.3 06:10:22 10° NNW 06:16:20 85° W 06:22:11 10° S
ERBS 2.3 06:13:00 10° NW 06:16:29 88° SW 06:19:56 10° SE
Okean O Rocket 3.2 06:17:29 10° NNW 06:20:11 16° WNW 06:22:54 10° W
Cosmos 1908 3.6 06:18:07 10° N 06:21:59 68° E 06:25:47 10° SSE
Cosmos 2297 Rocket 2.8 06:16:36 10° NNW 06:22:12 59° ENE 06:27:46 10° SE
Cosmos 1726 4.2 06:19:44 10° NNE 06:23:03 31° ENE 06:26:20 10° SE
EO 1 Del DPAF 3.9 06:21:14 10° SSW 06:24:41 33° W 06:28:13 10° NNW
Cosmos 1048 Rocket 4.3 06:21:01 10° NNW 06:25:57 47° WSW 06:30:56 10° S
Shenzhou-11 Module 4.4 06:25:41 10° SW 06:26:44 11° SSW 06:27:48 10° SSW
Cosmos 2082 4.2 06:22:26 10° NNW 06:28:06 64° ENE 06:33:41 10° SE
Cosmos 1356 Rocket 4.5 06:24:42 10° SW 06:28:19 26° WNW 06:31:58 10° NNW
Okean-O 3.0 06:28:00 10° N 06:32:13 44° WNW 06:36:25 10° SW
Cosmos 2366 rocket 4.1 06:28:39 10° NNW 06:34:34 51° W 06:40:29 10° SSW
In-Cosmos 22 4.4 06:32:32 10° SSW 06:37:59 54° WNW 06:43:36 10° N
CZ-4B R/B 4.5 06:37:00 10° NNW 06:40:45 19° WNW 06:44:30 10° WSW
